Air Quality Table

TIMESTAMP NO2 SO2 O3 PM10 PM2.5 TEMP HUM AIRPRES WS WD NO
2023-01-30 02:00 2.92 µg/m3 0.17 µg/m3 76.57 µg/m3 13.11 µg/m3 6.71 µg/m3 11.26 °C 83.23 % 1,012.94 mbar 3.74 m/s 266.82 Deg -0.11 µg/m3
2023-01-30 01:00 4.98 µg/m3 0.13 µg/m3 73.41 µg/m3 13.29 µg/m3 6.16 µg/m3 12.02 °C 79.59 % 1,012.63 mbar 4.04 m/s 36.27 Deg 0.23 µg/m3
2023-01-30 00:00 5.71 µg/m3 0.12 µg/m3 72.45 µg/m3 15.89 µg/m3 8.3 µg/m3 11.83 °C 80.61 % 1,012.82 mbar 3.12 m/s 21.13 Deg -0.01 µg/m3
2023-01-29 23:00 7.7 µg/m3 0.19 µg/m3 73.42 µg/m3 16.03 µg/m3 9.05 µg/m3 11.17 °C 87.03 % 1,012.84 mbar 2.94 m/s 30.98 Deg 2.95 µg/m3
2023-01-29 22:00 7.7 µg/m3 0.19 µg/m3 74.93 µg/m3 22.38 µg/m3 11.65 µg/m3 11.43 °C 85.89 % 1,012.79 mbar 2.04 m/s 39.43 Deg 2.66 µg/m3
2023-01-29 21:00 11.05 µg/m3 0.23 µg/m3 70.98 µg/m3 22.14 µg/m3 6.74 µg/m3 9.7 °C 97.25 % 1,012.38 mbar 3.27 m/s 181.53 Deg 1.39 µg/m3
2023-01-29 20:00 27.96 µg/m3 0.24 µg/m3 54.81 µg/m3 14.38 µg/m3 6.4 µg/m3 9.28 °C 99.03 % 1,012.22 mbar 2.72 m/s 324.25 Deg 2.25 µg/m3
2023-01-29 19:00 19.93 µg/m3 0.22 µg/m3 61.18 µg/m3 15.4 µg/m3 6.22 µg/m3 9.81 °C 98.2 % 1,012.02 mbar 1.49 m/s 168.62 Deg 2.61 µg/m3
2023-01-29 18:00 8.52 µg/m3 0.2 µg/m3 74.02 µg/m3 11.23 µg/m3 5.32 µg/m3 10.55 °C 86.39 % 1,011.67 mbar 3.6 m/s 31.57 Deg 0.64 µg/m3
2023-01-29 17:00 5.09 µg/m3 0.15 µg/m3 78.16 µg/m3 10.63 µg/m3 5.33 µg/m3 12.09 °C 72.71 % 1,010.90 mbar 3.81 m/s 36.57 Deg 0.45 µg/m3
2023-01-29 16:00 5.43 µg/m3 0.18 µg/m3 77.06 µg/m3 10.89 µg/m3 4.08 µg/m3 12.4 °C 76.83 % 1,010.68 mbar 4.22 m/s 30.8 Deg 0.68 µg/m3
2023-01-29 15:00 5.44 µg/m3 0.18 µg/m3 76.12 µg/m3 10.13 µg/m3 3.81 µg/m3 12.63 °C 75.21 % 1,010.48 mbar 4.48 m/s 32.25 Deg 0.76 µg/m3
2023-01-29 14:00 5.69 µg/m3 0.22 µg/m3 76.45 µg/m3 10.6 µg/m3 4.74 µg/m3 12.89 °C 73.58 % 1,010.62 mbar 3.92 m/s 27.9 Deg 0.93 µg/m3
2023-01-29 13:00 6.13 µg/m3 0.21 µg/m3 76.4 µg/m3 9.85 µg/m3 5.22 µg/m3 12.92 °C 71.57 % 1,011.22 mbar 3.6 m/s 28.33 Deg 1.03 µg/m3
2023-01-29 12:00 7.86 µg/m3 0.2 µg/m3 73.09 µg/m3 8.94 µg/m3 5.3 µg/m3 12.88 °C 70.68 % 1,011.79 mbar 3.25 m/s 27.6 Deg 1.57 µg/m3
2023-01-29 11:00 9.15 µg/m3 0.23 µg/m3 71.22 µg/m3 9.67 µg/m3 4.15 µg/m3 12.5 °C 72.17 % 1,011.91 mbar 3.63 m/s 32.7 Deg 1.69 µg/m3
2023-01-29 10:00 9.08 µg/m3 0.22 µg/m3 72.27 µg/m3 7.68 µg/m3 4.74 µg/m3 12.43 °C 72.15 % 1,011.33 mbar 3.42 m/s 34.17 Deg 1.61 µg/m3
2023-01-29 09:00 27.2 µg/m3 0.35 µg/m3 51.11 µg/m3 10.03 µg/m3 6.02 µg/m3 11.31 °C 75.81 % 1,010.78 mbar 2.01 m/s 176.07 Deg 6.39 µg/m3
2023-01-29 08:00 35.78 µg/m3 0.27 µg/m3 37.48 µg/m3 10.38 µg/m3 5.08 µg/m3 9.34 °C 86.79 % 1,010.13 mbar 1.37 m/s 331.15 Deg 5.01 µg/m3
2023-01-29 07:00 15.56 µg/m3 0.2 µg/m3 56.62 µg/m3 9.78 µg/m3 5.53 µg/m3 9.03 °C 88.84 % 1,009.83 mbar 1.88 m/s 311.92 Deg 0.7 µg/m3
2023-01-29 06:00 11.16 µg/m3 0.22 µg/m3 56.22 µg/m3 10.36 µg/m3 6.11 µg/m3 8.96 °C 90.54 % 1,009.55 mbar 1.87 m/s 306.55 Deg 0.27 µg/m3
2023-01-29 05:00 9.27 µg/m3 0.23 µg/m3 58.58 µg/m3 10.4 µg/m3 6.29 µg/m3 9.06 °C 89.62 % 1,009.24 mbar 1.97 m/s 303 Deg 0.34 µg/m3
2023-01-29 04:00 7.93 µg/m3 0.26 µg/m3 57.19 µg/m3 10.48 µg/m3 6.55 µg/m3 9.09 °C 90.93 % 1,009.16 mbar 1.82 m/s 292.73 Deg 0.11 µg/m3
2023-01-29 03:00 6.05 µg/m3 0.15 µg/m3 62.65 µg/m3 12.08 µg/m3 8.34 µg/m3 9.51 °C 89.33 % 1,009.03 mbar 1.66 m/s 289.7 Deg -0.07 µg/m3
2023-01-29 02:00 6.52 µg/m3 0.2 µg/m3 66.36 µg/m3 13.41 µg/m3 6.09 µg/m3 9.74 °C 86.2 % 1,009.02 mbar 1.75 m/s 286.52 Deg -0.05 µg/m3
2023-01-29 01:00 11.36 µg/m3 0.21 µg/m3 71.19 µg/m3 16.34 µg/m3 7.08 µg/m3 9.95 °C 75.64 % 1,008.68 mbar 1.98 m/s 293.5 Deg 0.22 µg/m3
2023-01-29 00:00 7.35 µg/m3 0.22 µg/m3 78.07 µg/m3 23.78 µg/m3 7.13 µg/m3 8.57 °C 91.2 % 1,009.26 mbar 2.49 m/s 322.6 Deg 0.29 µg/m3
2023-01-28 23:00 8.31 µg/m3 0.2 µg/m3 73.76 µg/m3 21.21 µg/m3 10.83 µg/m3 9.24 °C 90.65 % 1,008.91 mbar 2.34 m/s 320.67 Deg 0.21 µg/m3
2023-01-28 22:00 14.36 µg/m3 0.25 µg/m3 64.51 µg/m3 29.07 µg/m3 9.36 µg/m3 9.6 °C 89.07 % 1,008.38 mbar 1.95 m/s 291.53 Deg 0.66 µg/m3
2023-01-28 21:00 39.68 µg/m3 0.27 µg/m3 36.48 µg/m3 17.32 µg/m3 5.19 µg/m3 9.31 °C 90.09 % 1,007.89 mbar 1.62 m/s 255.1 Deg 2.22 µg/m3
2023-01-28 20:00 28.81 µg/m3 0.28 µg/m3 55.17 µg/m3 10.71 µg/m3 6.54 µg/m3 9.04 °C 89.73 % 1,007.57 mbar 1.68 m/s 297.02 Deg 4.9 µg/m3
2023-01-28 19:00 25.6 µg/m3 0.26 µg/m3 58.2 µg/m3 12.61 µg/m3 5.19 µg/m3 9.73 °C 81.82 % 1,007.20 mbar 2.61 m/s 297.75 Deg 2.82 µg/m3
2023-01-28 18:00 33.17 µg/m3 0.25 µg/m3 49.27 µg/m3 17.81 µg/m3 5.67 µg/m3 10.41 °C 79.81 % 1,006.46 mbar 1.45 m/s 307.37 Deg 2.27 µg/m3
2023-01-28 17:00 23.94 µg/m3 0.26 µg/m3 59.04 µg/m3 14.89 µg/m3 6.58 µg/m3 10.59 °C 82.41 % 1,006.12 mbar 1.52 m/s 292.62 Deg 3.39 µg/m3
2023-01-28 16:00 20.31 µg/m3 0.21 µg/m3 65.25 µg/m3 12.42 µg/m3 6.61 µg/m3 10.36 °C 79.33 % 1,005.64 mbar 2.37 m/s 283.3 Deg 1.24 µg/m3
2023-01-28 15:00 21.84 µg/m3 0.23 µg/m3 61.87 µg/m3 12.69 µg/m3 6.24 µg/m3 10.46 °C 78.55 % 1,005.15 mbar 1.73 m/s 272.1 Deg 1.97 µg/m3
2023-01-28 14:00 17.54 µg/m3 0.26 µg/m3 68.4 µg/m3 16.54 µg/m3 7.62 µg/m3 12.01 °C 70.21 % 1,004.97 mbar 2.25 m/s 300.72 Deg 3.05 µg/m3
2023-01-28 13:00 21.3 µg/m3 0.35 µg/m3 66.36 µg/m3 19.73 µg/m3 8.63 µg/m3 12.36 °C 70.94 % 1,005.32 mbar 1.65 m/s 280.6 Deg 4.73 µg/m3
2023-01-28 12:00 20.89 µg/m3 0.35 µg/m3 65.99 µg/m3 10.74 µg/m3 11.06 µg/m3 12.08 °C 71.79 % 1,005.78 mbar 2.06 m/s 341.98 Deg 4.23 µg/m3
2023-01-28 11:00 50.55 µg/m3 0.58 µg/m3 37.98 µg/m3 8.18 µg/m3 5.74 µg/m3 11.23 °C 80.9 % 1,006.20 mbar 1.24 m/s 307.45 Deg 22.83 µg/m3
2023-01-28 10:00 68.1 µg/m3 0.56 µg/m3 18.66 µg/m3 7.16 µg/m3 5.85 µg/m3 9.3 °C 86.71 % 1,006.05 mbar 0.84 m/s 309.78 Deg 24.08 µg/m3
2023-01-28 09:00 38.52 µg/m3 0.33 µg/m3 46.82 µg/m3 8.97 µg/m3 6.07 µg/m3 9.66 °C 82.11 % 1,005.40 mbar 2.15 m/s 324.75 Deg 5.97 µg/m3
2023-01-28 08:00 71.09 µg/m3 0.52 µg/m3 16.61 µg/m3 10.61 µg/m3 5.29 µg/m3 10.09 °C 76.93 % 1,004.90 mbar 0.92 m/s 300.21 Deg 26.11 µg/m3
2023-01-28 07:00 46.88 µg/m3 0.23 µg/m3 34.96 µg/m3 11.16 µg/m3 4.87 µg/m3 9.63 °C 79.61 % 1,004.69 mbar 1.36 m/s 293.62 Deg 6.17 µg/m3
2023-01-28 06:00 15.73 µg/m3 0.14 µg/m3 66.74 µg/m3 10.89 µg/m3 6.11 µg/m3 9.86 °C 78.94 % 1,004.55 mbar 1.41 m/s 287.83 Deg 0.65 µg/m3
2023-01-28 05:00 3.84 µg/m3 0.18 µg/m3 78.67 µg/m3 10.15 µg/m3 6.17 µg/m3 9.94 °C 76.41 % 1,004.35 mbar 1.78 m/s 284.57 Deg -0.13 µg/m3
2023-01-28 04:00 3.76 µg/m3 0.23 µg/m3 76.41 µg/m3 9.98 µg/m3 7.2 µg/m3 9.33 °C 82.32 % 1,004.47 mbar 1.87 m/s 285 Deg -0.05 µg/m3

It is to be noted that the data is provisional and subject to quality assurance procedures. For validated data kindly refer your request to contact.air@era.org.mt